Accueil
METAR-TAF:

METAR-TAF

Aéroports :

Morrisville-Stowe State Airport

Morrisville, Vermont, États-Unis

latitude: 44-32-10N, longitude: 072-36-58W, altitude: 223 m

Observation

Le bulletin a été fait il y a 35 minutes, à 04:54 UTC
Vent calme
Température 9°C
Humidité 100%
Pression 1014 hPa
Visibilité: 16.1 km
Ciel clair

METAR: KMVL 200454Z AUTO 00000KT 10SM CLR 09/09 A2993 RMK AO2 SLP138 T00940089 402170089

Heure: 01:29 (05:29 UTC)


TAF: absent

Observations et prévisions météorologiques de plus de 4000 aéroports (messages METAR et TAF).

Les stations disponibles sont représentées par des disques jaunes et rouges sur la carte.

Passer la souris dessus pour voir le nom de la station.

Cliquer dessus pour voir les observations et prévisions météorologiques.

Pour changer de carte: cliquez sur les boutons verts avec une croix noire pour zoomer, sur le bouton vert avec un tiret pour effectuer un zoom arrière, ou sur les flèches vertes pour les cartes adjacentes.


METAR-TAF: